Regional Weather Roundup
Issued by NWS Little Rock, AR

Home | Current Version | Previous Version | Graphics & Text | Print | Product List | Glossary On
Versions: 1 2 3 4 5 6 7 8 9 10 11 12 13 14 15 16 17 18 19 20 21 22 23 24 25 26 27 28
000
ASUS44 KLZK 300405
RWRLZK

WEATHER ROUNDUP FOR ARKANSAS
NATIONAL WEATHER SERVICE LITTLE ROCK AR
1100 PM CDT WED OCT 29 2014

NOTE: "FAIR" INDICATES FEW OR NO CLOUDS BELOW 12,000 FEET WITH NO
SIGNIFICANT WEATHER AND/OR OBSTRUCTIONS TO VISIBILITY.

ARZ001-003-010-029-300500-
NORTHWEST ARKANSAS

CITY           SKY/WX    TMP DP  RH WIND       PRES   REMARKS
FAYETTEVILLE   CLEAR     42  41  96 CALM      30.18R
FORT SMITH     CLEAR     52  46  80 CALM      30.16R
HARRISON       CLEAR     46  39  76 W3        30.18R
BENTONVILLE    CLEAR     46  39  76 CALM      30.17S
ROGERS         CLEAR     49  43  80 SE5       30.17S
SILOAM SPGS    CLEAR     46  36  66 CALM      30.18S
HIGHFILL       CLEAR     47  38  71 CALM      30.16S
$$

ARZ004-005-016-300500-
NORTH CENTRAL ARKANSAS

CITY           SKY/WX    TMP DP  RH WIND       PRES   REMARKS
BATESVILLE     CLEAR     46  43  87 CALM      30.16S
FLIPPIN        CLEAR     45  36  70 CALM      30.17S
MTN HOME       CLEAR     48  31  51 CALM      30.16S
$$

ARZ040-041-300500-
WEST CENTRAL ARKANSAS

CITY           SKY/WX    TMP DP  RH WIND       PRES   REMARKS
MENA             N/A     45  43  93 CALM      30.18R
MOUNT IDA      CLEAR     47  45  93 CALM      30.14S
$$

ARZ009-017-025-026-028-300500-
NORTHEAST ARKANSAS

CITY           SKY/WX    TMP DP  RH WIND       PRES   REMARKS
CORNING        FAIR      48  37  66 N5        30.17S
JONESBORO      CLEAR     48  40  73 CALM      30.16R
NEWPORT        CLEAR     51  44  77 N5        30.17S
WALNUT RIDGE   CLEAR     48  39  71 N3        30.16R
BLYTHEVILLE    CLEAR     48  40  73 NW3       30.16R
$$

ARZ022-023-033-042-044-300500-
CENTRAL ARKANSAS

CITY           SKY/WX    TMP DP  RH WIND       PRES   REMARKS
LITTLE ROCK    CLEAR     53  48  83 CALM      30.16S
N LITTLE ROCK  CLEAR     57  45  64 NW5       30.16S
JACKSONVILLE   CLEAR     48  46  93 CALM      30.16S
SEARCY         CLEAR     47  45  93 CALM      30.17S
HOT SPRINGS    CLEAR     47  45  93 CALM      30.17R
RUSSELLVILLE   CLEAR     48  45  89 CALM      30.16R
$$

ARZ036-300500-
EAST ARKANSAS

CITY           SKY/WX    TMP DP  RH WIND       PRES   REMARKS
WEST MEMPHIS   CLEAR     49  47  93 CALM      30.14S
$$

ARZ050-053-066-070-073-300500-
SOUTHWEST ARKANSAS

CITY           SKY/WX    TMP DP  RH WIND       PRES   REMARKS
ARKADELPHIA    FAIR      50  50 100 CALM      30.17S
CAMDEN         CLEAR     48  46  93 CALM      30.16S
TEXARKANA      CLEAR     58  42  55 SE6       30.15S
EL DORADO      CLEAR     49  47  93 CALM      30.16S
DE QUEEN       FOG       47  47 100 CALM      30.14S VSB 1/2
$$

ARZ056-057-069-300500-
SOUTHEAST ARKANSAS

CITY           SKY/WX    TMP DP  RH WIND       PRES   REMARKS
PINE BLUFF     CLEAR     52  49  89 CALM      30.16S
STUTTGART      CLEAR     54  50  87 CALM      30.16S
MONTICELLO     CLEAR     49  47  93 CALM      30.16S

$$





USA.gov is the U.S. government's official web portal to all federal, state and local government web resources and services.